Alexandria, MN

8:52 PM CST on December 08, 2019 (GMT -0600)
Chandler

Weather History for KAXN - October, 2019

Change the Weather History Date:

Saturday, October 12, 2019

  Actual Average Record
Temperature  
Mean Temperature 32 °F -  
Max Temperature 33 °F 55 °F 81 °F (1956)
Min Temperature 30 °F 35 °F 21 °F (2006)
Degree Days  
Heating Degree Days 34    
Moisture  
Dew Point 30 °F    
Average Humidity 90    
Maximum Humidity 96    
Minimum Humidity 85    
Precipitation  
Precipitation 0.07 in - - ()
Sea Level Pressure  
Sea Level Pressure 29.54 in    
Wind  
Wind Speed 20 mph ()    
Max Wind Speed 26 mph    
Max Gust Speed 41 mph    
Visibility 2.5 miles    
Events Fog , Snow    
Averages and records for this station are not official NWS values.
T = Trace of Precipitation, MM = Missing Value Source: Averaged Metar Reports

Daily Weather History Graph

Daily Weather History Graph

Search for Another Location

Airport or City:

Astronomy

Oct. 12, 2019 Rise Set
Actual Time 7:34 AM CDT 6:41 PM CDT
Civil Twilight 7:04 AM CDT 7:11 PM CDT
Nautical Twilight 6:29 AM CDT 7:45 PM CDT
Astronomical Twilight 5:54 AM CDT 8:20 PM CDT
Moon 6:43 PM CDT (10/12) 6:04 AM CDT (10/12)
Length of Visible Light 12h 07m
Length of Day
11h 07m
Waxing Gibbous, 99% of the Moon is Illuminated
Oct 12
Waxing Gibbous
Oct 13
Full
Oct 21
Last Quarter
Oct 27
New
Nov 4
First Quarter

Hourly Weather History & Observations

Time (CDT) Temp. Windchill Dew Point Humidity Pressure Visibility Wind Dir Wind Speed Gust Speed Precip Events Conditions
12:22 AM 30.9 °F 17.5 °F 28.0 °F 89% 29.55 in 1.5 mi West 24.2 mph 35.7 mph 0.00 in Snow Light Snow
12:45 AM 30.9 °F 18.1 °F 28.0 °F 89% 29.55 in 1.2 mi West 21.9 mph 35.7 mph 0.00 in Snow Light Snow
12:53 AM 30.9 °F 17.5 °F 28.0 °F 89% 29.60 in 2.0 mi West 24.2 mph 38.0 mph 0.00 in Snow Light Snow
1:01 AM 30.9 °F 17.5 °F 28.0 °F 89% 29.55 in 4.0 mi WSW 24.2 mph 40.3 mph 0.00 in Snow Light Snow
1:48 AM 32.0 °F 18.4 °F 28.4 °F 87% 29.53 in 2.0 mi WSW 26.5 mph 36.8 mph 0.00 in Snow Light Snow
1:49 AM 32.0 °F 18.9 °F 28.0 °F 85% 29.58 in 2.0 mi WSW 24.2 mph 36.8 mph 0.00 in Snow Light Snow
1:57 AM 30.9 °F 18.1 °F 28.0 °F 89% 29.52 in 1.5 mi WSW 21.9 mph 35.7 mph 0.00 in Snow Light Snow
2:17 AM 30.9 °F 17.8 °F 28.9 °F 92% 29.52 in 1.2 mi WSW 23.0 mph 35.7 mph 0.00 in Snow Light Snow
2:31 AM 30.9 °F 16.9 °F 28.9 °F 92% 29.51 in 1.5 mi WSW 26.5 mph 41.4 mph 0.00 in Snow Light Snow
2:50 AM 30.2 °F 17.4 °F 28.4 °F 93% 29.51 in 1.2 mi West 20.7 mph 38.0 mph 0.00 in Snow Light Snow
2:53 AM 30.9 °F 16.9 °F 28.9 °F 92% 29.56 in 1.2 mi WSW 26.5 mph 36.8 mph 0.00 in Snow Light Snow
3:13 AM 30.9 °F 17.2 °F 28.9 °F 92% 29.50 in 1.0 mi WSW 25.3 mph 36.8 mph 0.01 in Snow Light Snow
3:20 AM 30.9 °F 17.2 °F 28.0 °F 89% 29.50 in 1.0 mi WSW 25.3 mph 39.1 mph 0.01 in Snow Light Snow
3:31 AM 30.9 °F 17.8 °F 28.9 °F 92% 29.50 in 2.0 mi WSW 23.0 mph 38.0 mph 0.01 in Snow Light Snow
3:41 AM 32.0 °F 18.6 °F 28.0 °F 85% 29.50 in 2.5 mi WSW 25.3 mph 36.8 mph 0.01 in Snow Light Snow
3:53 AM 32.0 °F 19.5 °F 28.0 °F 85% 29.54 in 2.5 mi WSW 21.9 mph 38.0 mph 0.01 in Snow Light Snow
3:56 AM 32.0 °F 18.9 °F 28.0 °F 85% 29.49 in 3.0 mi WSW 24.2 mph 38.0 mph 0.00 in Snow Light Snow
4:53 AM 32.0 °F 19.8 °F 28.0 °F 85% 29.54 in 10.0 mi WSW 20.7 mph 36.8 mph 0.00 in   Overcast
5:53 AM 32.0 °F 19.5 °F 28.0 °F 85% 29.53 in 4.0 mi WSW 21.9 mph 33.4 mph 0.00 in Snow Light Snow
6:53 AM 32.0 °F 18.4 °F 28.0 °F 85% 29.52 in 6.0 mi West 26.5 mph 35.7 mph 0.00 in Snow Light Snow
7:53 AM 32.0 °F 20.1 °F 28.0 °F 85% 29.52 in 6.0 mi WSW 19.6 mph 32.2 mph 0.00 in Snow Light Snow
8:15 AM 32.0 °F 19.2 °F 28.0 °F 85% 29.46 in 2.0 mi WSW 23.0 mph 31.1 mph 0.00 in Snow Light Snow
8:27 AM 32.0 °F 19.5 °F 28.0 °F 85% 29.46 in 1.8 mi WSW 21.9 mph 29.9 mph 0.00 in Snow Light Snow
8:53 AM 32.0 °F 20.1 °F 28.9 °F 88% 29.51 in 1.5 mi WSW 19.6 mph 32.2 mph 0.00 in Snow Light Snow
9:04 AM 32.0 °F 19.8 °F 28.9 °F 88% 29.46 in 2.0 mi WSW 20.7 mph 32.2 mph 0.00 in Snow Light Snow
9:42 AM 32.0 °F 19.8 °F 28.9 °F 88% 29.45 in 1.5 mi WSW 20.7 mph 35.7 mph 0.00 in Snow Light Snow
9:53 AM 32.0 °F 20.5 °F 28.9 °F 88% 29.50 in 2.0 mi West 18.4 mph 28.8 mph 0.00 in Snow Light Snow
10:22 AM 32.0 °F 20.5 °F 28.9 °F 88% 29.46 in 1.2 mi West 18.4 mph 27.6 mph 0.00 in Snow Light Snow
10:53 AM 32.0 °F 20.5 °F 30.0 °F 92% 29.51 in 1.2 mi West 18.4 mph 32.2 mph 0.00 in Snow Light Snow
11:14 AM 32.0 °F 20.8 °F 30.0 °F 92% 29.47 in 1.0 mi West 17.3 mph 27.6 mph 0.00 in Snow Light Snow
11:34 AM 33.1 °F 21.5 °F 30.0 °F 89% 29.47 in 1.8 mi West 19.6 mph 28.8 mph 0.00 in Snow Light Snow
11:53 AM 32.0 °F 19.5 °F 28.9 °F 88% 29.52 in 2.0 mi West 21.9 mph 32.2 mph 0.00 in Snow Light Snow
12:04 PM 32.0 °F 18.9 °F 28.9 °F 88% 29.47 in 4.0 mi West 24.2 mph 34.5 mph 0.00 in Snow Light Snow
12:53 PM 33.1 °F 20.6 °F 28.9 °F 85% 29.52 in 5.0 mi West 23.0 mph 33.4 mph 0.00 in Snow Light Snow
1:53 PM 33.1 °F 22.2 °F 30.0 °F 89% 29.54 in 4.0 mi West 17.3 mph 26.5 mph 0.00 in   Overcast
2:21 PM 33.1 °F 22.2 °F 30.9 °F 92% 29.49 in 2.0 mi West 17.3 mph - 0.00 in   Overcast
2:46 PM 33.1 °F 21.5 °F 30.9 °F 92% 29.50 in 4.0 mi West 19.6 mph 33.4 mph 0.00 in   Overcast
2:53 PM 33.1 °F 21.2 °F 30.0 °F 89% 29.55 in 3.0 mi West 20.7 mph 32.2 mph 0.00 in Snow Light Snow
3:02 PM 33.1 °F 21.5 °F 30.9 °F 92% 29.50 in 4.0 mi West 19.6 mph 32.2 mph 0.00 in Snow Light Snow
3:53 PM 33.1 °F 21.5 °F 30.9 °F 92% 29.56 in 4.0 mi West 19.6 mph 33.4 mph 0.00 in   Overcast
4:13 PM 33.1 °F 21.5 °F 30.9 °F 92% 29.52 in 2.0 mi West 19.6 mph 34.5 mph 0.00 in   Overcast
4:22 PM 33.1 °F 20.9 °F 30.9 °F 92% 29.52 in 3.0 mi West 21.9 mph 31.1 mph 0.00 in   Overcast
4:35 PM 33.1 °F 22.6 °F 30.9 °F 92% 29.52 in 2.0 mi West 16.1 mph 27.6 mph 0.01 in Snow Light Snow
4:39 PM 33.1 °F 21.5 °F 30.9 °F 92% 29.52 in 1.5 mi West 19.6 mph 31.1 mph 0.01 in Snow Light Snow
4:42 PM 33.1 °F 21.9 °F 30.9 °F 92% 29.52 in 1.0 mi West 18.4 mph 31.1 mph 0.01 in Snow Light Snow
4:53 PM 33.1 °F 22.2 °F 30.9 °F 92% 29.57 in 2.0 mi West 17.3 mph 27.6 mph 0.01 in Snow Light Snow
4:57 PM 33.1 °F 21.5 °F 30.9 °F 92% 29.53 in 2.5 mi West 19.6 mph 29.9 mph 0.00 in Snow Light Snow
5:06 PM 33.1 °F 22.2 °F 30.9 °F 92% 29.54 in 3.0 mi West 17.3 mph - 0.00 in Snow Light Snow
5:18 PM 33.1 °F 23.0 °F 30.9 °F 92% 29.54 in 2.0 mi West 15.0 mph 27.6 mph 0.00 in Snow Light Snow
5:35 PM 33.1 °F 22.6 °F 30.9 °F 92% 29.55 in 1.2 mi West 16.1 mph - 0.01 in Snow Light Snow
5:43 PM 33.1 °F 23.0 °F 30.9 °F 92% 29.55 in 0.5 mi West 15.0 mph 24.2 mph 0.02 in Fog , Snow Snow
5:53 PM 33.1 °F 22.6 °F 30.9 °F 92% 29.60 in 0.8 mi West 16.1 mph - 0.03 in Snow Light Snow
5:58 PM 33.1 °F 21.9 °F 30.9 °F 92% 29.56 in 1.5 mi West 18.4 mph 26.5 mph 0.00 in Snow Light Snow
6:13 PM 33.1 °F 23.4 °F 30.9 °F 92% 29.57 in 1.2 mi West 13.8 mph 24.2 mph 0.00 in Snow Light Snow
6:46 PM 33.1 °F 22.2 °F 30.9 °F 92% 29.58 in 1.8 mi West 17.3 mph 29.9 mph 0.01 in Snow Light Snow
6:53 PM 32.0 °F 20.5 °F 30.9 °F 96% 29.63 in 1.8 mi West 18.4 mph 29.9 mph 0.01 in Snow Light Snow
7:01 PM 33.1 °F 21.9 °F 30.9 °F 92% 29.58 in 2.0 mi West 18.4 mph 27.6 mph 0.00 in Snow Light Snow
7:33 PM 32.0 °F 20.8 °F 30.9 °F 96% 29.60 in 1.5 mi West 17.3 mph - 0.01 in Snow Light Snow
7:53 PM 32.0 °F 21.2 °F 30.9 °F 96% 29.65 in 1.8 mi West 16.1 mph 26.5 mph 0.01 in Snow Light Snow
8:01 PM 32.0 °F 20.5 °F 30.9 °F 96% 29.60 in 2.0 mi West 18.4 mph 27.6 mph 0.00 in Snow Light Snow
8:24 PM 32.0 °F 20.8 °F 30.9 °F 96% 29.61 in 3.0 mi West 17.3 mph 28.8 mph 0.00 in Snow Light Snow
8:53 PM 32.0 °F 19.5 °F 30.0 °F 92% 29.66 in 3.0 mi West 21.9 mph 32.2 mph 0.00 in Snow Light Snow
9:14 PM 32.0 °F 20.1 °F 30.0 °F 92% 29.61 in 2.5 mi West 19.6 mph 28.8 mph 0.00 in Snow Light Snow
9:34 PM 32.0 °F 20.5 °F 30.0 °F 92% 29.61 in 3.0 mi West 18.4 mph 31.1 mph 0.00 in Snow Light Snow
9:53 PM 32.0 °F 20.1 °F 30.0 °F 92% 29.67 in 3.0 mi West 19.6 mph 27.6 mph 0.00 in Snow Light Snow
10:28 PM 32.0 °F 21.2 °F 30.9 °F 96% 29.62 in 1.8 mi West 16.1 mph - 0.00 in Snow Light Snow
10:46 PM 32.0 °F 21.2 °F 30.9 °F 96% 29.62 in 3.0 mi West 16.1 mph - 0.00 in Snow Light Snow
10:53 PM 32.0 °F 21.2 °F 30.0 °F 92% 29.67 in 4.0 mi WNW 16.1 mph 27.6 mph 0.00 in Snow Light Snow
11:53 PM 32.0 °F 21.2 °F 30.0 °F 92% 29.67 in 9.0 mi West 16.1 mph - 0.00 in Snow Light Snow